Date_and_time,latitude,longitude,wind_speed,RelWindDirFrom,WindDirFrom,air_pressure,air_temperature,relative_humidity,Temp,platform_speed_wrt_ground,air_pressure_at_mean_sea_level,platform_orientation
2019-05-01 00:00,50.6304333333333,-96.9807783333333,6.1,7.1,78,997.72,2.1,87,5.13,0.0,1025.65,253.2
2019-05-01 00:10,50.630435,-96.9807783333333,5.2,6.2,81,997.68,2.1,87,5.16,0.0,1025.62,253.2
2019-05-01 00:20,50.630445,-96.9807566666667,4.3,4.8,86,997.73,2.1,87,5.17,0.0,1025.67,253.2
2019-05-01 00:30,50.630455,-96.98079,5.1,6.1,91,997.64,2.1,86,5.19,0.0,1025.59,253.2
2019-05-01 00:40,50.6304833333333,-96.9808066666667,5.3,6.2,97,997.63,2.0,87,5.20,0.0,1025.58,253.2
2019-05-01 00:50,50.63045,-96.98077,5.3,6.4,99,997.61,1.8,86,5.20,0.0,1025.56,253.2
2019-05-01 01:00,50.6304233333333,-96.9807633333333,3.8,5.3,89,997.56,1.7,87,5.20,0.0,1025.49,150.1
2019-05-01 01:10,50.6304366666667,-96.980775,2.9,3.7,71,997.53,1.4,89,5.18,0.0,1025.48,150.1
2019-05-01 01:20,50.6304483333333,-96.9807783333333,3.4,4.5,63,997.53,1.3,86,5.17,0.0,1025.49,150.1
2019-05-01 01:30,50.630445,-96.980765,4.4,5.3,65,997.49,0.8,90,5.15,0.0,1025.47,150.1
2019-05-01 01:40,50.6304466666667,-96.980765,4.5,5.7,62,997.44,0.6,91,5.13,0.0,1025.43,150.1
2019-05-01 01:50,50.630455,-96.9807716666667,4.4,5.9,63,997.45,0.2,93,5.12,0.0,1025.47,150.1
2019-05-01 02:00,50.6304516666667,-96.9807783333333,5.8,6.6,77,997.35,0.2,92,5.10,0.0,1025.36,317.2
2019-05-01 02:10,50.6304483333333,-96.9807783333333,6.0,6.7,84,997.28,0.5,90,5.09,0.0,1025.27,317.2
2019-05-01 02:20,50.63045,-96.980765,6.0,6.8,88,997.43,0.8,88,5.07,0.0,1025.41,317.2
2019-05-01 02:30,50.6304366666667,-96.9807616666667,6.1,6.8,86,997.25,0.9,86,5.06,0.0,1025.23,317.2
2019-05-01 02:40,50.63043,-96.9807683333333,6.4,7.4,86,997.10,1.0,86,5.05,0.0,1025.08,317.2
2019-05-01 02:50,50.6304333333333,-96.98077,6.8,7.6,91,997.09,1.1,86,5.05,0.0,1025.07,317.2
2019-05-01 03:00,50.6304333333333,-96.980765,5.2,7.0,101,997.21,1.2,87,5.06,0.0,1025.21,90.0
2019-05-01 03:10,50.63042,-96.9807633333333,2.4,4.0,124,997.34,0.9,92,5.09,0.0,1025.35,90.0
2019-05-01 03:20,50.6304383333333,-96.98076,3.6,4.4,95,997.38,1.3,90,5.13,0.0,1025.40,90.0
2019-05-01 03:30,50.6304466666667,-96.9807766666667,4.0,5.1,96,997.33,1.3,91,5.16,0.0,1025.36,90.0
2019-05-01 03:40,50.6304583333333,-96.9807833333333,3.6,4.0,102,997.14,1.4,90,5.16,0.0,1025.18,90.0
2019-05-01 03:50,50.6304516666667,-96.9807766666667,4.0,4.7,112,997.11,1.5,90,5.15,0.0,1025.15,90.0
2019-05-01 04:00,50.6304483333333,-96.980775,4.4,5.0,116,997.04,1.5,90,5.14,0.0,1025.05,332.4
2019-05-01 04:10,50.6304483333333,-96.980775,1.3,5.5,69,996.99,1.1,95,5.13,0.0,1025.01,332.4
2019-05-01 04:20,50.6304483333333,-96.980775,2.1,3.8,91,996.94,1.5,91,5.12,0.0,1024.94,332.4
2019-05-01 04:30,50.6304483333333,-96.9807733333333,2.9,5.1,80,996.94,1.6,92,5.12,0.0,1024.92,332.4
2019-05-01 04:40,50.630455,-96.9807716666667,1.9,3.1,82,996.95,1.6,93,5.11,0.0,1024.93,332.4
2019-05-01 04:50,50.630465,-96.9807633333333,2.5,3.4,81,996.83,1.7,92,5.11,0.0,1024.80,332.4
2019-05-01 05:00,50.6304566666667,-96.9807683333333,2.9,4.2,92,996.78,1.9,91,5.11,0.0,1024.74,90.0
2019-05-01 05:10,50.6304566666667,-96.9807716666667,2.9,4.2,90,996.69,2.0,93,5.11,0.0,1024.63,90.0
2019-05-01 05:20,50.6304516666667,-96.9807833333333,4.8,5.9,94,996.68,1.9,98,5.11,0.0,1024.63,90.0
2019-05-01 05:30,50.6304416666667,-96.980775,6.5,7.4,97,996.63,1.9,98,5.13,0.0,1024.57,90.0
2019-05-01 05:40,50.6304416666667,-96.98077,7.2,7.7,98,996.58,2.1,96,5.14,0.0,1024.51,90.0
2019-05-01 05:50,50.630445,-96.9807766666667,6.2,7.0,93,996.58,1.9,99,5.15,0.0,1024.51,90.0
2019-05-01 06:00,50.630445,-96.980765,6.0,6.9,90,996.52,1.7,99,5.14,0.0,1024.48,38.0
2019-05-01 06:10,50.6304516666667,-96.9807633333333,7.2,9.1,94,996.48,1.8,99,5.15,0.0,1024.41,38.0
2019-05-01 06:20,50.63045,-96.9807716666667,7.5,9.1,98,996.36,1.9,99,5.16,0.0,1024.27,38.0
2019-05-01 06:30,50.6304416666667,-96.9807683333333,8.7,11.4,108,996.31,2.2,99,5.17,0.0,1024.22,38.0
2019-05-01 06:40,50.63044,-96.9807683333333,6.3,7.7,92,996.28,2.0,99,5.17,0.0,1024.18,38.0
2019-05-01 06:50,50.63044,-96.98077,5.3,5.7,87,996.13,1.9,99,5.20,0.0,1024.03,38.0
2019-05-01 07:00,50.6304416666667,-96.98077,5.9,6.6,90,996.04,1.8,99,5.20,0.0,1023.93,167.4
2019-05-01 07:10,50.6304683333333,-96.9807916666667,5.3,6.3,92,996.07,1.9,99,5.20,0.0,1023.97,167.4
2019-05-01 07:20,50.6304433333333,-96.9807733333333,4.2,5.2,103,996.09,1.9,99,5.20,0.0,1023.99,167.4
2019-05-01 07:30,50.63045,-96.9807766666667,3.9,4.4,109,996.09,1.8,99,5.20,0.0,1023.98,167.4
2019-05-01 07:40,50.6304483333333,-96.9807733333333,4.4,5.0,96,995.98,1.7,100,5.18,0.0,1023.89,167.4
2019-05-01 07:50,50.6304466666667,-96.9807733333333,3.9,4.4,89,995.89,1.6,100,5.17,0.0,1023.81,167.4
2019-05-01 08:00,50.6304533333333,-96.9807733333333,3.5,4.5,88,995.90,1.5,100,5.16,0.0,1023.82,270.0
2019-05-01 08:10,50.6304483333333,-96.9807733333333,3.3,3.8,78,995.82,1.4,100,5.15,0.0,1023.74,270.0
2019-05-01 08:20,50.6304483333333,-96.9807766666667,3.3,3.8,76,995.69,1.3,100,5.14,0.0,1023.59,270.0
2019-05-01 08:30,50.6304466666667,-96.98077,4.3,5.2,77,995.61,1.3,100,5.13,0.0,1023.52,270.0
2019-05-01 08:40,50.630445,-96.98077,4.9,5.4,75,995.50,1.3,100,5.12,0.0,1023.42,270.0
2019-05-01 08:50,50.630415,-96.9807433333333,5.4,6.2,73,995.34,1.3,100,5.12,0.0,1023.25,270.0
2019-05-01 09:00,50.6304416666667,-96.980755,5.5,6.1,71,995.17,1.3,100,5.10,0.0,1023.08,90.0
2019-05-01 09:10,50.6304483333333,-96.9807666666667,4.8,5.5,73,995.13,1.2,100,5.09,0.0,1023.03,90.0
2019-05-01 09:20,50.6304483333333,-96.980765,4.7,5.4,75,995.21,1.2,100,5.08,0.0,1023.12,90.0
2019-05-01 09:30,50.6304483333333,-96.9807666666667,4.4,5.0,75,995.23,1.1,100,5.07,0.0,1023.15,90.0
2019-05-01 09:40,50.6304483333333,-96.980765,4.1,5.1,78,995.21,1.0,100,5.07,0.0,1023.14,90.0
2019-05-01 09:50,50.6304383333333,-96.980765,3.2,4.0,95,995.21,1.0,100,5.06,0.0,1023.15,90.0
2019-05-01 10:00,50.6304416666667,-96.980765,1.8,2.8,125,995.24,0.8,100,5.05,0.0,1023.19,0.0
2019-05-01 10:10,50.6304483333333,-96.980765,2.5,3.6,108,995.19,1.2,100,5.04,0.0,1023.13,0.0
2019-05-01 10:20,50.630445,-96.9807666666667,2.8,3.8,104,995.17,1.4,100,5.04,0.0,1023.10,0.0
2019-05-01 10:30,50.6304466666667,-96.9807666666667,2.9,3.9,93,995.16,1.3,100,5.03,0.0,1023.10,0.0
2019-05-01 10:40,50.6304483333333,-96.980765,2.2,3.0,95,995.14,1.4,100,5.03,0.0,1023.07,0.0
2019-05-01 10:50,50.6304466666667,-96.980765,2.5,3.4,102,995.09,1.5,100,5.03,0.0,1023.02,0.0
2019-05-01 11:00,50.6304466666667,-96.9807633333333,2.1,3.1,98,994.95,1.5,100,5.04,0.0,1022.87,131.7
2019-05-01 11:10,50.6304466666667,-96.9807616666667,1.8,2.7,108,994.91,1.5,100,5.04,0.0,1022.83,131.7
2019-05-01 11:20,50.630445,-96.980765,0.8,1.9,86,994.78,1.5,100,5.05,0.0,1022.70,131.7
2019-05-01 11:30,50.630445,-96.9807633333333,0.7,1.5,48,994.71,1.4,100,5.04,0.0,1022.64,131.7
2019-05-01 11:40,50.630445,-96.9807633333333,1.5,5.1,57,994.67,1.2,100,5.02,0.0,1022.60,131.7
2019-05-01 11:50,50.630445,-96.9807633333333,2.2,3.5,36,994.75,1.2,100,5.01,0.0,1022.70,131.7
2019-05-01 12:00,50.630445,-96.9807633333333,2.1,3.2,21,994.76,1.1,100,5.00,0.0,1022.70,270.0
2019-05-01 12:10,50.630445,-96.9807633333333,1.6,2.6,33,994.84,1.2,100,4.98,0.0,1022.76,270.0
2019-05-01 12:20,50.630445,-96.9807633333333,2.2,2.9,44,994.90,1.4,100,4.97,0.0,1022.82,270.0
2019-05-01 12:30,50.630445,-96.980765,2.5,3.0,20,994.95,1.1,100,4.96,0.0,1022.89,270.0
2019-05-01 12:40,50.630445,-96.980765,3.1,3.7,6,994.97,0.9,100,4.95,0.0,1022.91,270.0
2019-05-01 12:50,50.6304466666667,-96.9807666666667,2.7,3.2,14,994.96,0.9,100,4.94,0.0,1022.90,270.0
2019-05-01 13:00,50.6304466666667,-96.980765,1.9,2.8,24,994.96,1.0,100,4.93,0.0,1022.89,360.0
2019-05-01 13:10,50.6304466666667,-96.9807666666667,1.2,1.7,32,995.07,1.3,100,4.92,0.0,1022.99,360.0
2019-05-01 13:20,50.6304466666667,-96.9807666666667,1.7,2.4,15,995.04,1.4,100,4.91,0.0,1022.96,360.0
2019-05-01 13:30,50.6304466666667,-96.9807666666667,2.4,2.7,21,994.91,1.4,100,4.88,0.0,1022.84,360.0
2019-05-01 13:40,50.63045,-96.98079,2.7,3.3,26,994.88,1.3,100,4.86,0.0,1022.81,360.0
2019-05-01 13:50,50.6304483333333,-96.9807783333333,2.1,2.6,39,994.87,1.3,100,4.85,0.0,1022.81,360.0
2019-05-01 14:00,50.6304483333333,-96.9807816666667,1.7,2.4,64,994.86,1.5,100,4.85,0.0,1022.78,270.0
2019-05-01 14:10,50.6304433333333,-96.98073,1.7,2.3,73,994.88,1.7,100,4.86,0.0,1022.78,270.0
2019-05-01 14:20,50.6304416666667,-96.980755,1.6,2.0,84,994.83,2.1,100,4.87,0.0,1022.73,270.0
2019-05-01 14:30,50.63044,-96.9807616666667,1.6,2.1,55,994.73,1.7,100,4.88,0.0,1022.66,270.0
2019-05-01 14:40,50.6304383333333,-96.9807616666667,1.5,2.3,62,994.86,1.7,100,4.90,0.0,1022.78,270.0
2019-05-01 14:50,50.6304283333333,-96.98077,1.4,2.3,61,994.78,1.8,100,4.91,0.0,1022.69,270.0
2019-05-01 15:00,50.6304183333333,-96.980725,1.3,2.3,41,994.66,1.8,100,4.92,0.0,1022.55,140.5
2019-05-01 15:10,50.6304366666667,-96.9807566666667,2.3,3.1,43,994.60,1.5,100,4.92,0.0,1022.51,140.5
2019-05-01 15:20,50.630435,-96.98076,3.0,3.8,44,994.68,1.3,100,4.92,0.0,1022.60,140.5
2019-05-01 15:30,50.6304366666667,-96.98076,3.7,4.5,32,994.71,1.2,100,4.93,0.0,1022.63,140.5
2019-05-01 15:40,50.6304366666667,-96.98076,3.4,4.0,30,994.71,1.1,100,4.94,0.0,1022.64,140.5
2019-05-01 15:50,50.6304366666667,-96.9807616666667,3.5,4.2,36,994.68,1.1,100,4.95,0.0,1022.60,140.5
2019-05-01 16:00,50.6304366666667,-96.9807616666667,2.8,3.8,34,994.70,1.1,100,4.96,0.0,1022.62,165.5
2019-05-01 16:10,50.6304433333333,-96.9807666666667,2.5,3.5,49,994.75,1.4,100,4.97,0.0,1022.63,165.5
2019-05-01 16:20,50.63045,-96.980775,2.3,3.2,60,994.88,1.6,100,4.96,0.0,1022.78,165.5
2019-05-01 16:30,50.6304466666667,-96.980775,2.9,3.8,76,994.85,2.0,100,4.94,0.0,1022.72,165.5
2019-05-01 16:40,50.6304466666667,-96.98078,3.2,4.2,83,994.75,2.5,99,4.93,0.0,1022.59,165.5
2019-05-01 16:50,50.6304466666667,-96.980775,4.3,4.9,75,994.64,2.6,99,4.92,0.0,1022.46,165.5
2019-05-01 17:00,50.630445,-96.980775,3.2,4.5,57,994.49,2.2,100,4.91,0.0,1022.35,125.3
2019-05-01 17:10,50.6304466666667,-96.9807733333333,3.9,5.0,68,994.45,2.2,100,4.91,0.0,1022.32,125.3
2019-05-01 17:20,50.630445,-96.9807716666667,3.9,4.7,77,994.47,2.7,99,4.91,0.0,1022.32,125.3
2019-05-01 17:30,50.6304466666667,-96.980765,3.4,5.4,82,994.42,3.6,95,4.92,0.0,1022.23,125.3
2019-05-01 17:40,50.630445,-96.9807716666667,5.3,6.9,70,994.34,3.2,98,4.92,0.0,1022.17,125.3
2019-05-01 17:50,50.630445,-96.9807766666667,5.5,5.9,59,994.31,2.2,100,4.91,0.0,1022.18,125.3
2019-05-01 18:00,50.6304433333333,-96.9807766666667,5.4,6.0,54,994.20,1.9,100,4.87,0.0,1022.08,315.5
2019-05-01 18:10,50.6304416666667,-96.9807816666667,5.9,6.3,57,994.19,1.8,100,4.86,0.0,1022.05,315.5
2019-05-01 18:20,50.63044,-96.9807816666667,5.9,6.6,65,994.16,2.1,100,4.84,0.0,1021.99,315.5
2019-05-01 18:30,50.63044,-96.9807833333333,5.0,5.4,74,994.16,2.6,99,4.84,0.0,1021.93,315.5
2019-05-01 18:40,50.63044,-96.9807833333333,5.2,5.8,76,994.10,2.9,99,4.84,0.0,1021.86,315.5
2019-05-01 18:50,50.63044,-96.9807816666667,4.7,5.4,78,994.07,3.0,99,4.84,0.0,1021.84,315.5
2019-05-01 19:00,50.63044,-96.9807816666667,4.6,5.6,75,994.08,2.9,99,4.84,0.0,1021.85,287.7
2019-05-01 19:10,50.6304416666667,-96.9807816666667,4.3,5.4,74,994.12,2.6,99,4.85,0.0,1021.88,287.7
2019-05-01 19:20,50.6304416666667,-96.9807816666667,3.3,4.5,76,994.19,2.7,99,4.87,0.0,1021.91,287.7
2019-05-01 19:30,50.6304416666667,-96.98078,4.2,5.9,81,994.23,2.9,99,4.88,0.0,1021.96,287.7
2019-05-01 19:40,50.63044,-96.9807783333333,5.9,7.0,83,994.25,2.8,99,4.89,0.0,1022.04,287.7
2019-05-01 19:50,50.63044,-96.9807783333333,5.9,7.2,84,994.24,2.8,99,4.91,0.0,1022.04,287.7
2019-05-01 20:00,50.6304316666667,-96.9807583333333,5.9,6.7,84,994.23,2.7,99,4.92,0.0,1022.04,131.7
2019-05-01 20:10,50.6304466666667,-96.98079,6.4,7.2,88,994.29,2.7,99,4.94,0.0,1022.09,131.7
2019-05-01 20:20,50.6304316666667,-96.9807566666667,6.0,7.0,90,994.36,2.9,99,4.95,0.0,1022.12,131.7
2019-05-01 20:30,50.6304333333333,-96.98076,6.3,7.4,98,994.36,2.9,99,4.97,0.0,1022.11,131.7
2019-05-01 20:40,50.630435,-96.980765,5.5,6.3,103,994.34,2.6,99,4.98,0.0,1022.10,131.7
2019-05-01 20:50,50.630435,-96.980765,5.3,5.8,96,994.32,2.8,99,4.99,0.0,1022.06,131.7
2019-05-01 21:00,50.6304366666667,-96.9807666666667,4.2,5.1,95,994.24,3.1,99,4.99,0.0,1021.99,131.7
2019-05-01 21:10,50.6304383333333,-96.98077,3.5,4.2,98,994.23,3.4,99,4.99,0.0,1021.96,131.7
2019-05-01 21:20,50.63044,-96.98077,3.9,4.4,97,994.16,3.5,99,4.99,0.0,1021.87,131.7
2019-05-01 21:30,50.630435,-96.9807683333333,3.6,4.2,90,994.05,3.5,99,4.99,0.0,1021.77,131.7
2019-05-01 21:40,50.6304466666667,-96.980835,3.6,4.3,89,994.00,3.6,99,5.01,0.0,1021.71,131.7
2019-05-01 21:50,50.630485,-96.9808066666667,4.3,4.9,90,993.95,3.7,99,5.02,0.0,1021.65,131.7
2019-05-01 22:00,50.6304483333333,-96.9807683333333,4.4,5.3,88,993.83,3.8,99,5.03,0.0,1021.53,68.5
2019-05-01 22:10,50.6304466666667,-96.9807733333333,4.9,5.4,88,993.79,3.6,99,5.05,0.0,1021.49,68.5
2019-05-01 22:20,50.6304333333333,-96.9807683333333,4.0,4.6,87,993.75,3.7,99,5.06,0.0,1021.44,68.5
2019-05-01 22:30,50.6304383333333,-96.9807716666667,3.2,3.8,80,993.72,3.9,99,5.07,0.0,1021.41,68.5
2019-05-01 22:40,50.63044,-96.98077,3.6,4.1,80,993.69,3.8,99,5.08,0.0,1021.38,68.5
2019-05-01 22:50,50.6304383333333,-96.9807666666667,3.4,4.0,74,993.61,3.6,99,5.09,0.0,1021.29,68.5
2019-05-01 23:00,50.6304383333333,-96.98077,3.4,4.2,77,993.62,3.2,99,5.09,0.0,1021.30,345.5
2019-05-01 23:10,50.6304266666667,-96.9807916666667,3.4,3.8,86,993.69,3.5,99,5.09,0.0,1021.36,345.5
2019-05-01 23:20,50.63045,-96.980785,4.5,5.5,83,993.69,3.4,99,5.10,0.0,1021.36,345.5
2019-05-01 23:30,50.6304283333333,-96.9807666666667,5.6,6.2,83,993.62,3.0,99,5.10,0.0,1021.31,345.5
2019-05-01 23:40,50.6304283333333,-96.9807683333333,6.9,7.7,88,993.53,2.8,99,5.11,0.0,1021.22,345.5
